CO-66
1 32791U 08021J 12152.19535630 .00001188 00000-0 15093-3 0 3067
2 32791 097.8005 213.6609 0016749 114.8526 245.4484 14.83372899221228
RS-30
1 32953U 08025A 12152.38736904 .00000010 00000-0 00000 0 0 8256
2 32953 082.4996 305.5851 0018567 348.0571 012.0072 12.43023859182475
TACSAT-3
1 35001U 09028A 12121.72616188 .15204951 73582-5 42606-3 0 00016
2 35001 040.4259 351.8840 0007146 275.2650 085.0693 16.45157000166990
PHARMSAT
1 35002U 09028B 12152.22064957 .00088984 00000-0 43403-3 0 9168
2 35002 040.4581 175.8128 0005799 111.0709 249.0764 15.81244893171630
METEOR-M
1 35865U 09049A 12152.33079989 -.00000011 00000-0 14622-4 0 4579
2 35865 098.6556 206.9713 0003343 095.8330 264.3229 14.21863013140201
RS-38
1 35869U 09049E 12152.49515934 .00000029 00000-0 32660-4 0 4654
2 35869 098.6512 207.1306 0005493 097.2346 262.9457 14.22071836140245
JUGNU
1 37839U 11058B 12150.23237523 .00000619 00000-0 19019-3 0 01587
2 37839 019.9583 113.0534 0019605 016.2085 343.8895 14.12056232032569
SRMSAT
1 37841U 11058D 12150.26108914 .00000264 00000-0 00000-0 0 01600
2 37841 019.9697 117.3923 0011769 341.2744 018.7278 14.10140464032521
RAX-2
1 37853U 11061D 12152.55650693 .00004568 00000-0 36819-3 0 1912
2 37853 101.7166 185.1679 0247363 038.3562 323.4920 14.79895900 31930
AUBIESAT
1 37854U 11061E 12152.58308381 .00004963 00000-0 39403-3 0 1922
2 37854 101.7153 185.4222 0247835 038.0762 323.7665 14.80262451 31937
HRBE
1 37855U 11061F 12151.98678002 .00004904 00000-0 38957-3 0 01924
2 37855 101.7195 184.5267 0248738 039.4831 322.4202 14.80122460031846
RS-39
1 38051U 11062C 12152.54274817 .00007502 00000-0 31809-3 0 3820
2 38051 051.6329 239.1371 0012196 339.5104 146.8636 15.24038817 19435
E-STAR
1 38079U 12006C 12151.90691471 .00014681 00000-0 36132-3 0 2602
2 38079 069.4949 355.1413 0748960 269.6523 081.8862 14.13905201 15149
GOLIAT
1 38085U 12006J 12152.59466905 .00016479 00000-0 40790-3 0 2407
2 38085 069.4916 353.7821 0752577 268.9923 082.4859 14.12984601 15235
HORYU-2
1 38340U 12025D 12151.12852606 .00000796 00000-0 14123-3 0 210
2 38340 098.1740 090.8180 0013874 031.9477 328.2512 14.69939215 1822
